User: anonymous   Login
Location: Unspecified
(0.0000°N, 0.0000°E)
Time: 15:41:36
(UTC+00:00)
Language:

COMSATBw-1 - Orbit

View from above orbital plane
View from above orbital plane
View from above satellite
View from above satellite

Ground track
Ground track

The orbit data is extracted from the following two-line orbital elements,

1 35943U 09054B   21267.85882781  .00000019  00000-0  00000-0 0  9997
2 35943   0.0452  95.4186 0003037  84.4377 196.2387  1.00272055 43999
Epoch (UTC): 24 September 2021 20:36:42
Eccentricity: 0.0003037
inclination: 0.0452°
perigee height: 35773 km
apogee height: 35799 km
right ascension of ascending node: 95.4186°
argument of perigee: 84.4377°
revolutions per day: 1.00272055
mean anomaly at epoch: 196.2387°
orbit number at epoch: 4399

The dashed part of the orbit path shows where the satellite is in the earth's shadow,  

DLR